CW4629 Weather Reports


time (UTC)temp
C
wind
direction
speed
KPH
gust
KPH
rain 1hr
cm
rain 24hr
cm
rain mn
cm
humidity
%
barometer
mb
20260904162226 28 188 6.4 9.7 0.00 0.00 0.00 24 1016.0
20260904161226 28 202 4.8 6.4 0.00 0.00 0.00 25 1015.9
20260904160227 27 180 4.8 6.4 0.00 0.00 0.00 26 1015.9
20260904154240 26 179 3.2 6.4 0.00 0.00 0.00 26 1016.0
20260904152324 25 180 0.0 3.2 0.00 0.00 0.00 30 1016.0
20260904151326 25 360 0.0 0.0 0.00 0.00 0.00 32 1016.0
20260904150342 24 360 0.0 0.0 0.00 0.00 0.00 32 1015.9
20260904145425 23 360 1.6 1.6 0.00 0.00 0.00 35 1016.0
20260904144524 22 360 0.0 0.0 0.00 0.00 0.00 38 1016.0
20260904143527 21 315 0.0 0.0 0.00 0.00 0.00 40 1016.0
20260904142525 20 318 1.6 3.2 0.00 0.00 0.00 40 1015.9
20260904141624 20 337 0.0 0.0 0.00 0.00 0.00 41 1016.0
20260904135625 17 360 0.0 1.6 0.00 0.00 0.00 44 1015.6
20260904135542 17 360 0.0 0.0 0.00 0.00 0.00 44 1015.6
20260904134642 17 360 1.6 3.2 0.00 0.00 0.00 48 1015.5
20260904133626 16 360 0.0 1.6 0.00 0.00 0.00 49 1015.4
20260904132540 15 360 1.6 3.2 0.00 0.00 0.00 52 1015.3
20260904131525 15 22 0.0 0.0 0.00 0.00 0.00 51 1015.1
20260904130540 16 22 0.0 0.0 0.00 0.00 0.00 50 1014.9
20260904125526 16 337 0.0 0.0 0.00 0.00 0.00 48 1014.9
20260904124526 16 90 0.0 1.6 0.00 0.00 0.00 47 1014.6
20260904122526 17 90 0.0 0.0 0.00 0.00 0.00 43 1014.5
20260904121623 16 11 3.2 3.2 0.00 0.00 0.00 43 1014.5
20260904121527 16 360 3.2 3.2 0.00 0.00 0.00 43 1014.4
20260904120624 16 22 1.6 1.6 0.00 0.00 0.00 42 1014.4
20260904113742 17 157 0.0 0.0 0.00 0.00 0.00 41 1014.2
20260904112826 17 270 0.0 0.0 0.00 0.00 0.00 40 1014.4
20260904110943 18 270 0.0 1.6 0.00 0.00 0.00 36 1014.2
20260904110025 18 75 3.2 4.8 0.00 0.00 0.00 35 1014.3
20260904105026 18 168 0.0 0.0 0.00 0.00 0.00 34 1014.3
20260904104123 19 90 0.0 0.0 0.00 0.00 0.00 32 1013.9
20260904104040 19 90 0.0 0.0 0.00 0.00 0.00 32 1014.0
20260904103126 17 66 4.8 8.0 0.00 0.00 0.00 39 1013.8
20260904102224 17 360 0.0 3.2 0.00 0.00 0.00 38 1013.8
20260904101224 18 360 0.0 0.0 0.00 0.00 0.00 35 1013.8
20260904100240 18 360 3.2 4.8 0.00 0.00 0.00 34 1013.5
20260904095324 18 247 0.0 1.6 0.00 0.00 0.00 35 1013.4
20260904094325 18 292 0.0 0.0 0.00 0.00 0.00 35 1013.4
20260904093341 19 341 4.8 6.4 0.00 0.00 0.00 30 1013.3
20260904092426 19 346 3.2 4.8 0.00 0.00 0.00 31 1013.4
20260904090424 20 247 3.2 3.2 0.00 0.00 0.00 28 1013.4
20260904085441 19 209 0.0 1.6 0.00 0.00 0.00 29 1013.3
20260904084525 20 360 0.0 3.2 0.00 0.00 0.00 26 1013.3
20260904083526 21 360 0.0 3.2 0.00 0.00 0.00 23 1013.5
20260904082623 20 135 0.0 3.2 0.00 0.00 0.00 22 1013.3
20260904081642 20 225 3.2 4.8 0.00 0.00 0.00 23 1013.5
20260904080624 20 225 1.6 1.6 0.00 0.00 0.00 23 1013.5
20260904074642 21 247 0.0 0.0 0.00 0.00 0.00 23 1013.3
20260904073725 21 247 0.0 3.2 0.00 0.00 0.00 23 1013.4
20260904072726 22 225 0.0 1.6 0.00 0.00 0.00 22 1013.3
20260904071724 22 67 3.2 6.4 0.00 0.00 0.00 20 1013.1
20260904070740 21 45 0.0 0.0 0.00 0.00 0.00 23 1013.1
20260904065740 20 25 3.2 6.4 0.00 0.00 0.00 27 1013.1
20260904063740 21 22 3.2 3.2 0.00 0.00 0.00 25 1013.1
20260904062824 21 360 0.0 0.0 0.00 0.00 0.00 25 1013.1
20260904055915 21 202 0.0 1.6 0.00 0.00 0.00 23 1012.9
20260904054031 21 301 4.8 6.4 0.00 0.00 0.00 28 1012.9
20260904053033 21 313 3.2 6.4 0.00 0.00 0.00 25 1012.8
20260904052015 22 270 0.0 0.0 0.00 0.00 0.00 22 1012.7
20260904051031 22 247 0.0 0.0 0.00 0.00 0.00 24 1012.8
20260904050015 22 349 1.6 4.8 0.00 0.00 0.00 22 1012.8
20260904045032 22 360 0.0 1.6 0.00 0.00 0.00 24 1012.8
20260904044030 22 337 0.0 1.6 0.00 0.00 0.00 23 1012.9
20260904043015 23 360 0.0 1.6 0.00 0.00 0.00 21 1012.8
20260904042033 23 292 0.0 0.0 0.00 0.00 0.00 20 1012.6
20260904040130 24 22 0.0 1.6 0.00 0.00 0.00 16 1012.4
20260904034215 26 90 1.6 1.6 0.00 0.00 0.00 14 1012.3
20260904033217 26 90 1.6 1.6 0.00 0.00 0.00 14 1012.2
20260904032230 27 90 0.0 0.0 0.00 0.00 0.00 11 1012.1
20260904031315 27 90 0.0 0.0 0.00 0.00 0.00 10 1012.0
20260904030314 27 90 0.0 0.0 0.00 0.00 0.00 10 1012.0
20260904024415 28 202 0.0 0.0 0.00 0.00 0.00 8 1011.5
20260904023515 30 202 0.0 0.0 0.00 0.00 0.00 7 1011.4
20260904022517 30 234 3.2 6.4 0.00 0.00 0.00 7 1011.3
20260904021615 30 222 4.8 11.3 0.00 0.00 0.00 7 1011.3
20260904020617 31 212 6.4 9.7 0.00 0.00 0.00 5 1011.4
20260904020530 31 203 9.7 12.9 0.00 0.00 0.00 5 1011.3
20260904015615 31 230 8.0 12.9 0.00 0.00 0.00 6 1011.2
20260904012715 32 233 9.7 12.9 0.00 0.00 0.00 6 1011.2
20260904012629 32 234 11.3 17.7 0.00 0.00 0.00 6 1011.2
20260904011631 33 240 6.4 11.3 0.00 0.00 0.00 5 1011.0
20260904010717 33 211 11.3 19.3 0.00 0.00 0.00 5 1011.1
20260904005713 34 196 9.7 14.5 0.00 0.00 0.00 6 1011.2
20260904004732 34 195 6.4 9.7 0.00 0.00 0.00 6 1011.2
20260904002814 34 183 16.1 25.7 0.00 0.00 0.00 5 1011.1
20260904001831 35 179 11.3 19.3 0.00 0.00 0.00 5 1011.1
20260904000832 35 169 8.0 12.9 0.00 0.00 0.00 4 1011.2
20260903235914 35 180 8.0 16.1 0.00 0.00 0.00 5 1011.3
20260903234914 35 183 14.5 22.5 0.00 0.00 0.00 5 1011.2
20260903234832 35 184 12.9 19.3 0.00 0.00 0.00 4 1011.3
20260903233913 35 204 14.5 20.9 0.00 0.00 0.00 5 1011.4
20260903232916 35 195 14.5 19.3 0.00 0.00 0.00 6 1011.6
20260903232014 34 196 9.7 14.5 0.00 0.00 0.00 6 1011.6
20260903230115 34 241 19.3 25.7 0.00 0.00 0.00 6 1011.8
20260903225131 35 253 22.5 29.0 0.00 0.00 0.00 7 1011.8
20260903224213 35 174 9.7 14.5 0.00 0.00 0.00 6 1011.9
20260903223232 35 194 9.7 17.7 0.00 0.00 0.00 6 1012.1
20260903222232 34 168 12.9 22.5 0.00 0.00 0.00 8 1012.2
20260903221216 33 294 1.6 9.7 0.00 0.00 0.00 8 1012.4
20260903220214 34 160 6.4 14.5 0.00 0.00 0.00 8 1012.5
20260903215229 33 243 8.0 14.5 0.00 0.00 0.00 7 1012.7
20260903214313 33 229 8.0 12.9 0.00 0.00 0.00 8 1012.8
20260903212413 33 353 1.6 6.4 0.00 0.00 0.00 8 1012.9
20260903211429 33 288 8.0 11.3 0.00 0.00 0.00 8 1013.0
20260903210515 33 228 9.7 19.3 0.00 0.00 0.00 8 1013.1
20260903205514 33 217 12.9 16.1 0.00 0.00 0.00 9 1013.1
20260903205432 33 163 4.8 12.9 0.00 0.00 0.00 8 1013.1
20260903203530 33 212 16.1 24.1 0.00 0.00 0.00 8 1013.6
20260903202515 33 107 0.0 3.2 0.00 0.00 0.00 8 1013.6
20260903194614 33 175 11.3 19.3 0.00 0.00 0.00 8 1014.2
20260903193631 33 105 3.2 8.0 0.00 0.00 0.00 10 1014.2
20260903193513 33 110 8.0 11.3 0.00 0.00 0.00 9 1014.3
20260903192516 32 191 9.7 16.1 0.00 0.00 0.00 9 1014.6
20260903191515 32 209 4.8 8.0 0.00 0.00 0.00 11 1014.6
20260903190514 32 198 1.6 6.4 0.00 0.00 0.00 11 1014.8
20260903185613 32 112 3.2 6.4 0.00 0.00 0.00 11 1015.0
20260903184713 31 240 1.6 9.7 0.00 0.00 0.00 11 1015.2
20260903183714 31 321 4.8 8.0 0.00 0.00 0.00 13 1015.6
20260903182813 31 270 4.8 6.4 0.00 0.00 0.00 14 1015.5
20260903181831 30 247 1.6 3.2 0.00 0.00 0.00 13 1015.5
20260903180914 31 265 0.0 3.2 0.00 0.00 0.00 15 1015.9
20260903175929 30 239 3.2 4.8 0.00 0.00 0.00 14 1015.8
20260903174915 30 156 9.7 12.9 0.00 0.00 0.00 15 1016.0
20260903174014 30 202 0.0 1.6 0.00 0.00 0.00 17 1016.0
20260903173015 30 184 0.0 6.4 0.00 0.00 0.00 16 1016.0
20260903172014 30 214 3.2 6.4 0.00 0.00 0.00 17 1016.0
20260903171015 29 202 1.6 4.8 0.00 0.00 0.00 17 1016.0
20260903170014 28 237 0.0 4.8 0.00 0.00 0.00 17 1016.0
20260903165016 28 195 1.6 4.8 0.00 0.00 0.00 18 1016.2
20260903164914 28 197 3.2 6.4 0.00 0.00 0.00 18 1016.1
20260903163915 27 225 0.0 0.0 0.00 0.00 0.00 17 1016.2